[[{"header":{"parameterUnit":"m.s-1","parameterCategory":1,"la1":30.2991,"la2":30.254,"lo1":-89.0895,"lo2":-89.0444,"dy":0.0017,"dx":0.0017,"nx":28,"ny":28,"refTime":"2025-03-03T03:00:00:Z","depth":0,"parameterNumber":2,"parameterNumberName":"U-component_of_WINDS"},"data":[0,0,0,0,0,0,0,0,0,0,0,0,0,0,0,0,0,0,0,0,0,0,0,0,0,0,0,0,0,0,0,0,0,0,0,0,0,0,0,0,0,0,0,0,0,0,0,0,0,0,0,0,0,0,0,0,0,0,-6.1433,-6.1434,0,-6.1487,-6.1488,-6.1488,-6.1418,-6.1416,-6.1413,-6.1411,-6.1465,-6.1469,-6.1473,0,0,0,0,0,0,0,0,0,0,0,0,0,-6.127,-6.1273,-6.1433,-6.1434,-6.1435,-6.1487,-6.1488,-6.1488,-6.1419,-6.1416,-6.1413,-6.141,-6.1464,-6.1469,-6.1473,0,0,0,0,0,0,0,0,0,0,0,0,0,-6.1334,-6.1275,-6.1433,-6.1406,-6.1404,-6.1487,-6.1488,-6.1489,-6.1419,-6.1416,-6.1412,-6.1408,-6.1463,-6.1468,-6.1474,-6.1585,0,0,-6.1491,-6.1494,0,0,0,0,0,0,0,0,-6.1331,-6.134,-6.1409,-6.1408,-6.1406,-6.1442,-6.145,-6.1521,-6.142,-6.1414,-6.1411,-6.1406,-6.1461,-6.1466,-6.1485,-6.1588,-6.159,-6.1492,-6.1495,-6.1498,-6.1499,0,0,0,0,0,0,0,-6.1326,-6.1338,-6.1454,-6.141,-6.1409,-6.1391,-6.1396,-6.1463,-6.1458,-6.1414,-6.1409,-6.1416,-6.1459,-6.1479,-6.1486,-6.1591,-6.1492,-6.1497,-6.15,-6.1503,-6.1788,-6.1792,0,0,0,0,0,0,-6.1325,-6.1334,-6.1453,-6.1456,-6.1358,-6.1397,-6.1403,-6.1434,-6.1457,-6.1457,-6.142,-6.1413,-6.1472,-6.1479,-6.1487,-6.1618,-6.1498,-6.1503,-6.1506,-6.1784,-6.1789,-6.1793,0,0,0,0,0,0,-6.1322,-6.1336,-6.145,-6.1394,-6.1407,-6.1404,-6.144,-6.1437,-6.1458,-6.1461,-6.146,-6.1441,-6.1469,-6.1479,-6.1561,-6.1619,-6.1506,-6.1511,-6.1779,-6.1785,-6.1791,-6.1881,0,0,0,0,0,0,-6.1317,-6.1336,-6.1378,-6.1395,-6.141,-6.1524,-6.1444,-6.1441,-6.1468,-6.146,-6.1481,-6.1481,-6.1467,-6.1553,-6.1567,-6.1625,-6.1515,-6.1774,-6.1782,-6.1789,-6.1872,-6.1889,-6.1903,0,0,0,0,0,-6.1312,-6.1401,-6.138,-6.1395,-6.1463,-6.1527,-6.1536,-6.1517,-6.1473,-6.1515,-6.1517,-6.148,-6.1611,-6.1562,-6.1577,-6.1637,-6.177,-6.1779,-6.1789,-6.1866,-6.1886,-6.1903,0,0,0,0,0,0,-6.1389,-6.1402,-6.138,-6.1477,-6.1502,-6.1515,-6.1567,-6.154,-6.1577,-6.1568,-6.1544,-6.155,-6.1637,-6.1646,-6.1591,-6.1746,-6.1683,-6.1696,-6.1736,-6.1756,-6.1771,-6.1765,-6.152,0,0,0,0,0,-6.1418,-6.1469,-6.1478,-6.1563,-6.1576,-6.1571,-6.1598,-6.1582,-6.1606,-6.1616,-6.1624,-6.165,-6.1696,-6.1727,-6.177,-6.1875,-6.1878,-6.1924,-6.1939,-6.1952,-6.1962,-6.2017,-6.2037,-6.1824,-6.1824,-6.1824,0,0,-6.1476,-6.149,-6.1524,-6.1579,-6.1596,-6.1649,-6.1579,-6.1639,-6.1678,-6.1625,-6.1702,-6.171,-6.1737,-6.183,-6.1872,-6.184,-6.2023,-6.1964,-6.1974,-6.1977,-6.2029,-6.2049,-6.2067,-6.183,-6.1829,-6.1828,0,0,-6.161,-6.1627,-6.1698,-6.1718,-6.1745,-6.174,-6.1758,-6.1777,-6.178,-6.1858,-6.1819,-6.1866,-6.1947,-6.1967,-6.1988,-6.2132,-6.2099,-6.2147,-6.2226,-6.228,-6.2297,-6.2312,-6.2361,-6.2379,-6.2158,-6.2158,-6.2159,0,-6.1679,-6.1758,-6.1739,-6.1801,-6.1826,-6.1782,-6.1854,-6.1874,-6.1914,-6.1932,-6.1897,-6.1998,-6.2013,-6.211,-6.2145,-6.2165,-6.2183,-6.2142,-6.2296,-6.2311,-6.2324,-6.2371,-6.239,-6.2164,-6.2163,-6.2163,-6.2162,0,-6.1841,-6.1896,-6.1951,-6.1991,-6.2023,-6.209,-6.2081,-6.2116,-6.2098,-6.2098,-6.2178,-6.2195,-6.224,-6.2263,-6.2246,-6.2358,-6.2337,-6.23,-6.2235,-6.235,-6.2394,-6.2412,-6.2172,-6.217,-6.2168,-6.2167,0,0,-6.2021,-6.2051,-6.2071,-6.2088,-6.2117,-6.2159,-6.2225,-6.227,-6.2299,-6.2329,-6.2383,-6.2454,-6.2419,-6.2443,-6.2429,-6.2477,-6.2588,-6.2433,-6.2433,-6.2459,-6.271,-6.2736,-6.2757,-6.2568,-6.2571,-6.2574,-6.2707,0,-6.2153,-6.2265,-6.2251,-6.2359,-6.2409,-6.237,-6.2427,-6.2451,-6.2453,-6.2496,-6.2499,-6.2548,-6.2501,-6.2515,-6.2561,-6.2565,-6.2637,-6.2555,-6.2616,-6.2618,-6.2607,-6.278,-6.2807,-6.2932,-6.2724,-6.2727,-6.2729,0,-6.232,-6.2357,-6.247,-6.249,-6.251,-6.2562,-6.2602,-6.2645,-6.2671,-6.2669,-6.2697,-6.2675,-6.274,-6.2678,-6.2768,-6.2712,-6.2737,-6.2743,-6.2747,-6.2749,-6.2678,-6.2784,-6.2971,-6.2989,-6.2756,-6.2754,-6.2752,0,-6.2437,-6.2515,-6.2592,-6.2609,-6.2635,-6.2672,-6.2685,-6.2707,-6.2735,-6.2771,-6.2789,-6.2833,-6.2855,-6.289,-6.288,-6.2835,-6.2971,-6.2908,-6.297,-6.2971,-6.2997,-6.2995,-6.3188,-6.3019,-6.3019,-6.3019,-6.3018,0,-6.2584,-6.2654,-6.2645,-6.2692,-6.2769,-6.2754,-6.2831,-6.2839,-6.286,-6.2908,-6.2878,-6.2923,-6.2909,-6.2954,-6.2948,-6.3022,-6.3033,-6.3033,-6.303,-6.3034,-6.3034,-6.3047,-6.3037,-6.3024,-6.3023,-6.3022,-6.3021,0,-6.2726,-6.2723,-6.2804,-6.2823,-6.283,-6.2886,-6.2902,-6.2946,-6.2947,-6.3009,-6.3022,-6.3024,-6.3076,-6.307,-6.3128,-6.3124,-6.3215,-6.3204,-6.3206,-6.3202,-6.3264,-6.3257,-6.347,-6.3496,-6.3313,-6.3315,-6.3316,0,-6.2817,-6.287,-6.2896,-6.2926,-6.2941,-6.299,-6.3019,-6.3006,-6.3037,-6.3072,-6.3112,-6.3162,-6.32,-6.3285,-6.3291,-6.3335,-6.3322,-6.3394,-6.3328,-6.3331,-6.332,-6.3316,-6.332,-6.3405,-6.3408,-6.3409,-6.3411,0,-6.298,-6.2976,-6.3019,-6.3061,-6.3096,-6.3129,-6.3159,-6.3186,-6.3176,-6.3213,-6.3265,-6.3295,-6.3355,-6.3404,-6.3447,-6.346,-6.3434,-6.3432,-6.3448,-6.3451,-6.3449,-6.3448,-6.3238,-6.3426,-6.3424,-6.3423,-6.3423,-6.3422,-6.3098,-6.3143,-6.3167,-6.3216,-6.3237,-6.3266,-6.3308,-6.3316,-6.3359,-6.3406,-6.3397,-6.3456,-6.3482,-6.3537,-6.3555,-6.36,-6.3574,-6.3599,-6.3604,-6.3609,-6.3615,-6.3445,-6.3609,-6.3608,-6.3608,-6.3607,-6.3607,0,-6.3257,-6.3271,-6.3316,-6.3358,-6.3397,-6.3371,-6.3403,-6.3436,-6.3488,-6.3515,-6.3554,-6.3615,-6.3662,-6.3674,-6.3719,-6.3754,-6.3743,-6.3766,-6.3762,-6.3765,-6.3637,-6.3617,-6.3774,-6.3774,-6.3774,-6.3774,-6.3774,-6.3774,-6.3343,-6.3417,-6.3417,-6.3502,-6.3516,-6.3573,-6.3593,-6.362,-6.3641,-6.371,-6.375,-6.3757,-6.3778,-6.3825,-6.3868,-6.387,-6.3887,-6.3914,-6.3911,-6.3791,-6.3774,-6.3758,-6.3739,-6.3919,-6.3919,-6.4034,-6.4036,-6.4036]},{"header":{"parameterUnit":"m.s-1","parameterCategory":1,"la1":30.2991,"la2":30.254,"lo1":-89.0895,"lo2":-89.0444,"dy":0.0017,"dx":0.0017,"nx":28,"ny":28,"refTime":"2025-03-03T03:00:00:Z","depth":0,"parameterNumber":3,"parameterNumberName":"V-component_of_WINDS"},"data":[0,0,0,0,0,0,0,0,0,0,0,0,0,0,0,0,0,0,0,0,0,0,0,0,0,0,0,0,0,0,0,0,0,0,0,0,0,0,0,0,0,0,0,0,0,0,0,0,0,0,0,0,0,0,0,0,0,0,3.7082,3.7082,0,3.7124,3.7124,3.7125,3.7089,3.7088,3.7086,3.7085,3.7128,3.713,3.7133,0,0,0,0,0,0,0,0,0,0,0,0,0,3.6972,3.6974,3.7082,3.7082,3.7083,3.7124,3.7124,3.7125,3.709,3.7088,3.7086,3.7084,3.7127,3.713,3.7133,0,0,0,0,0,0,0,0,0,0,0,0,0,3.7017,3.6975,3.7082,3.707,3.7069,3.7124,3.7124,3.7125,3.709,3.7088,3.7086,3.7083,3.7126,3.713,3.7133,3.7201,0,0,3.7145,3.7146,0,0,0,0,0,0,0,0,3.7015,3.7021,3.7071,3.7071,3.707,3.7099,3.7101,3.7151,3.7091,3.7082,3.7085,3.7082,3.712,3.7124,3.7137,3.7203,3.7205,3.7145,3.7147,3.7149,3.715,0,0,0,0,0,0,0,3.7012,3.7019,3.7098,3.7072,3.7071,3.7063,3.7067,3.711,3.7113,3.7083,3.708,3.7086,3.7119,3.7133,3.7138,3.7205,3.7145,3.7148,3.7151,3.7152,3.7332,3.7334,0,0,0,0,0,0,3.701,3.7017,3.7097,3.71,3.7037,3.7067,3.7071,3.7092,3.7112,3.7113,3.7088,3.7084,3.7128,3.7133,3.7139,3.7221,3.7149,3.7153,3.7155,3.7329,3.7332,3.7335,0,0,0,0,0,0,3.7007,3.7017,3.7095,3.7058,3.7067,3.7071,3.7095,3.7094,3.7108,3.7116,3.7116,3.7101,3.7126,3.7134,3.7186,3.7222,3.7154,3.7158,3.7326,3.733,3.7334,3.7385,0,0,0,0,0,0,3.7004,3.7017,3.7042,3.7059,3.7069,3.7142,3.7097,3.7097,3.7115,3.711,3.7129,3.713,3.7125,3.7181,3.719,3.7226,3.7161,3.7323,3.7328,3.7332,3.738,3.739,3.7398,0,0,0,0,0,3.7001,3.7054,3.7043,3.7053,3.7101,3.7144,3.715,3.7143,3.7118,3.7144,3.7149,3.7129,3.7217,3.7187,3.7197,3.7234,3.7321,3.7327,3.7332,3.7376,3.7388,3.7398,0,0,0,0,0,0,3.704,3.7056,3.7044,3.7104,3.7123,3.7138,3.717,3.7156,3.7182,3.7177,3.7168,3.7172,3.7228,3.7236,3.7203,3.7302,3.7265,3.7273,3.7294,3.7306,3.7315,3.7312,3.7164,0,0,0,0,0,3.7056,3.709,3.7101,3.7153,3.7163,3.7165,3.7184,3.7177,3.7196,3.7204,3.7213,3.7233,3.7265,3.7286,3.7315,3.7381,3.7385,3.7412,3.7421,3.7429,3.7436,3.7473,3.7485,3.7353,3.7353,3.7353,0,0,3.7089,3.7101,3.7123,3.7162,3.7175,3.7211,3.7172,3.7211,3.7237,3.721,3.7261,3.7269,3.729,3.735,3.7377,3.7358,3.7473,3.7436,3.7442,3.7445,3.748,3.7492,3.7504,3.7357,3.7357,3.7356,0,0,3.7167,3.7179,3.7225,3.724,3.7262,3.7263,3.7275,3.7292,3.7297,3.7348,3.7328,3.736,3.7415,3.7431,3.7447,3.7534,3.7518,3.7544,3.7592,3.7628,3.7639,3.7648,3.768,3.7692,3.7551,3.7551,3.7551,0,3.7205,3.7257,3.725,3.7291,3.7309,3.7287,3.7334,3.7349,3.738,3.7393,3.7372,3.7442,3.7454,3.7519,3.7541,3.7554,3.7567,3.7542,3.7638,3.7647,3.7656,3.7686,3.7698,3.7554,3.7554,3.7554,3.7553,0,3.7304,3.7341,3.7375,3.7406,3.7428,3.7472,3.7472,3.7495,3.7488,3.7492,3.7545,3.756,3.7593,3.7608,3.76,3.7672,3.7661,3.7639,3.7601,3.7671,3.77,3.7712,3.7559,3.7558,3.7557,3.7556,0,0,3.7406,3.7434,3.7447,3.7462,3.7486,3.7515,3.7558,3.7591,3.7612,3.7635,3.7672,3.772,3.7701,3.7719,3.7713,3.7745,3.7815,3.772,3.772,3.7738,3.7897,3.7914,3.7928,3.7805,3.7807,3.7809,3.7896,0,3.7486,3.7562,3.7558,3.7629,3.7664,3.7645,3.7683,3.7702,3.7708,3.7739,3.7745,3.7779,3.7751,3.7762,3.7793,3.78,3.7847,3.7794,3.784,3.7842,3.7835,3.7942,3.7959,3.8041,3.7907,3.7909,3.791,0,3.7589,3.7616,3.7691,3.7712,3.7726,3.7761,3.7792,3.7822,3.7844,3.7846,3.7867,3.7857,3.7902,3.7864,3.7927,3.789,3.7909,3.7916,3.7919,3.7923,3.788,3.795,3.8066,3.8079,3.7928,3.7926,3.7925,0,3.7658,3.7713,3.7765,3.7779,3.7804,3.7829,3.784,3.786,3.7881,3.7909,3.7923,3.7955,3.7973,3.7999,3.7998,3.797,3.8062,3.8023,3.8066,3.8066,3.8086,3.8085,3.8207,3.8097,3.8097,3.8097,3.8097,0,3.7747,3.7794,3.7797,3.7829,3.7882,3.7878,3.793,3.7939,3.7958,3.7992,3.7978,3.801,3.8007,3.8041,3.8041,3.8094,3.8101,3.8105,3.8104,3.8106,3.8106,3.8119,3.8113,3.81,3.8099,3.8099,3.8098,0,3.7833,3.7836,3.7893,3.7913,3.7919,3.7957,3.7974,3.8006,3.8011,3.8055,3.8065,3.8073,3.8111,3.8114,3.8158,3.8158,3.8223,3.8216,3.8216,3.8214,3.8257,3.8253,3.8392,3.8411,3.8288,3.8289,3.829,0,3.789,3.7926,3.795,3.7973,3.7986,3.8022,3.8044,3.8042,3.8065,3.8095,3.8123,3.8161,3.819,3.8254,3.8264,3.8298,3.8292,3.8339,3.8297,3.8299,3.8294,3.8292,3.8297,3.8347,3.8348,3.8349,3.835,0,3.7992,3.7992,3.8024,3.8058,3.8085,3.8111,3.8135,3.8155,3.8156,3.8183,3.8223,3.8246,3.8293,3.8331,3.8365,3.8377,3.8365,3.8363,3.8375,3.8378,3.8377,3.8379,3.8238,3.836,3.8359,3.8358,3.8358,3.8357,3.8065,3.8097,3.812,3.8157,3.8176,3.8199,3.823,3.824,3.8273,3.8311,3.8308,3.8353,3.8376,3.8421,3.8436,3.8472,3.8456,3.8473,3.8477,3.8482,3.8487,3.8371,3.8478,3.8478,3.8477,3.8477,3.8477,0,3.8168,3.8182,3.8216,3.8251,3.8281,3.8267,3.8294,3.8319,3.8359,3.8382,3.8412,3.8459,3.8497,3.8511,3.8547,3.8573,3.8568,3.8583,3.8581,3.8585,3.8498,3.8485,3.8587,3.8586,3.8586,3.8586,3.8586,3.8586,3.8224,3.8278,3.8282,3.8345,3.8359,3.8403,3.842,3.8442,3.8461,3.8514,3.8546,3.8554,3.8574,3.8613,3.8647,3.865,3.8665,3.8682,3.8683,3.8602,3.8591,3.858,3.8568,3.8685,3.8685,3.8767,3.8768,3.8768]}]]